Find Starlink 35392

NORAD ID: 65823 Int'l Des: 2025-221 Owner: SPXS Country: US Constellation: starlink operational
LEOCIRCULAR

Aktuelle Ansicht

3D-Globus wird geladen...

Über Starlink 35392

Beschreibung wird geladen...

Nächste Überflüge

Passes for default location (London). Set your location on the main map for personalized predictions.

Höhenverlauf

Loading altitude history...

Zweizeiliger Elementsatz

1 65823U 25221A 26150.17043966 .00036521 00000-0 12390-2 0 9990
2 65823 53.1608 70.2174 0001112 89.2588 270.8541 15.30202822 38558
Epoch: 30. Mai 2026 • Age: 7 hours

Aktueller Status

Höhe 478.9 km
Geschwindigkeit 7.63 km/s
Subsatellitenpunkt 43.53°N, 66.79°E
Startdatum 29. Sept. 2025
Alter 0.6 years
Typ internet

Technische Details

Klassifizierung Payload
Masse 575.00 kg
Trockenmasse 530.00 kg
Gesamtmasse 575.00 kg
Länge 0.30 m
Durchmesser 4.10 m
Spannweite 29.00 m
Form Box + pan
Hersteller SPXS
Bus-Typ Starlink V2MO
Phasenstatus In Orbit
Besitzer/Staat SPXS/US

Most Searched